Temp
21 21 20 20 20 20 20 20 20 20 20 20 20 20 20 20 20 20 20 19 19 19 19 19 18 18 18 18 18 18 18 19 18 18 18 18 18 18 18 19 18 18 18
21 21 20 19 20 20 20 20 20 20 20 20 20 20 20 20 20 20 20 19 19 19 19 19 18 18 18 18 18 18 19 19 18 18 18 18 18 18 19 18 18 18 18
22 21 20 19 20 20 20 20 20 20 20 20 20 20 20 20 20 19 19 19 19 19 19 18 18 18 18 18 18 18 18 19 19 19 19 19 18 18 18 19 18 17 18
23 21 20 20 19 19 19 19 20 20 20 20 19 20 20 20 19 19 19 19 19 19 19 19 18 18 18 18 18 18 19 20 19 19 19 20 18 18 18 18 18 18 17
23 22 21 20 20 19 19 19 19 20 20 19 19 19 19 19 19 19 19 19 19 19 19 19 18 18 18 18 18 19 19 20 20 20 19 20 19 19 18 18 18 18 18
23 22 21 20 20 20 19 19 19 19 19 19 19 19 19 19 19 19 19 19 19 19 19 19 18 18 18 18 18 18 19 19 20 20 21 20 19 18 18 18 18 18 18
23 22 22 21 21 20 19 19 19 19 19 19 19 19 19 19 19 19 19 19 19 19 18 19 18 18 18 18 18 19 19 19 20 19 20 19 19 18 17 18 19 18 18
23 22 22 21 21 21 20 19 19 19 19 19 19 19 19 19 19 19 18 19 19 18 18 19 18 18 19 18 18 18 19 20 20 19 19 19 18 17 17 17 18 17 17
22 22 22 21 21 21 21 21 20 19 19 19 19 19 19 19 19 19 18 18 19 18 18 18 18 18 18 18 19 19 19 20 19 19 19 18 17 17 18 18 16 16 17
22 22 21 21 21 21 21 20 20 20 20 19 19 19 19 19 19 18 18 18 18 18 18 18 18 18 18 18 18 18 19 19 18 19 18 18 17 17 18 18 17 16 16
21 21 21 21 21 21 21 20 20 20 20 20 19 19 19 19 19 19 19 18 18 18 18 18 18 18 18 18 18 18 18 18 18 18 18 18 18 17 17 18 17 16 16
20 21 21 20 20 20 20 20 20 20 19 20 20 20 19 19 19 19 19 19 18 18 18 18 18 18 18 18 18 18 18 19 19 19 18 18 18 17 17 18 18 17 16
21 21 20 20 19 19 19 19 19 20 20 20 20 20 20 20 19 20 19 19 19 18 18 18 18 18 18 17 18 18 19 20 19 20 19 19 18 17 16 17 17 16 16
21 21 20 19 19 19 19 19 19 19 20 20 20 20 20 21 20 19 19 19 18 18 18 18 17 18 18 18 18 19 19 20 20 20 20 20 19 18 16 16 17 16 16
21 20 19 19 18 18 18 18 18 18 19 19 19 19 19 19 18 18 18 18 18 18 18 18 17 17 18 18 19 18 19 20 20 21 20 19 19 18 17 16 16 16 16
20 20 19 18 18 18 17 17 18 17 17 18 18 18 18 18 18 18 17 18 18 18 18 17 18 17 17 18 19 19 19 20 20 20 20 19 18 18 17 16 16 16 16
20 20 19 18 18 17 17 17 17 17 17 17 17 17 17 17 18 18 17 17 17 17 17 17 17 17 17 17 18 19 19 20 20 20 20 19 18 18 17 17 16 16 16
20 20 19 18 17 17 17 16 16 16 16 16 16 17 17 17 16 17 16 16 16 17 17 17 17 17 17 17 17 18 18 19 20 20 19 18 18 18 17 16 17 17 17
20 20 19 18 17 16 16 16 15 15 15 15 16 16 16 16 16 15 15 15 15 15 16 16 16 16 17 16 17 18 17 18 17 18 19 18 17 17 17 16 16 16 17
21 20 18 17 16 16 16 15 15 14 14 15 15 15 15 15 15 15 14 14 15 15 15 15 15 16 16 16 16 16 17 17 18 18 19 18 18 17 16 16 16 16 16
20 19 18 16 16 15 15 14 14 14 14 14 14 15 14 14 15 15 14 14 14 15 15 15 15 14 15 15 15 14 14 16 16 16 17 18 17 17 16 16 16 16 16
19 19 17 16 16 15 14 14 14 14 13 13 14 13 13 13 14 14 14 14 14 14 15 15 15 15 14 15 14 13 13 13 14 15 15 16 17 17 16 16 16 15 15
18 17 17 16 15 15 14 14 13 13 12 12 12 13 13 13 13 13 13 13 13 14 14 14 14 15 14 15 14 15 12 13 13 13 14 15 15 16 15 16 15 15 15
17 17 16 15 15 14 14 13 11 11 11 12 13 13 13 13 13 13 12 12 12 13 13 14 14 15 15 14 14 14 13 14 13 11 13 14 14 15 15 15 15 15 15
16 15 14 14 14 14 13 12 10 11 12 12 13 14 14 13 13 13 12 11 11 11 12 12 13 14 14 13 13 13 13 12 12 11 12 11 13 14 15 15 14 14 14
14 14 14 14 14 13 13 13 13 12 10 10 12 13 13 13 13 13 12 11 11 10 10 11 12 13 13 14 13 14 14 13 11 12 11 12 13 12 13 13 14 14 13
Height
790 791 794 796 797 799 801 802 804 806 807 809 810 812 813 814 815 816 818 818 819 820 822 823 824 825 826 827 828 829 830 831 833 834 834 835 836 837 838 838 839 839 840
789 792 795 797 798 800 802 804 805 806 808 810 812 813 815 816 817 817 819 820 822 823 824 825 825 827 828 829 830 831 832 834 835 836 837 838 839 840 840 841 841 842 843
789 792 795 797 799 801 802 804 806 807 809 811 812 815 816 817 818 819 820 822 823 824 825 826 827 828 830 831 832 833 834 835 836 837 838 840 841 842 843 843 844 845 846
790 793 795 797 799 801 803 805 806 808 809 811 813 815 817 818 819 820 822 823 824 825 826 827 829 830 831 832 833 835 836 837 838 839 840 841 843 844 844 845 847 848 849
792 794 796 798 800 801 803 805 806 808 810 812 813 815 817 818 820 821 822 824 825 826 828 829 830 832 833 834 835 836 837 839 839 840 841 843 844 844 846 847 848 850 850
793 794 797 799 800 801 803 804 806 808 809 811 813 815 816 819 820 822 823 824 826 827 828 830 831 832 834 835 836 837 839 840 841 842 843 843 845 846 846 846 848 851 852
793 795 798 799 800 801 803 804 805 807 809 810 812 814 816 817 819 822 823 825 826 828 829 830 832 833 834 836 837 838 839 841 842 843 843 845 846 847 848 849 850 852 854
794 797 799 800 801 801 802 803 805 806 807 809 811 812 814 816 818 820 822 824 826 828 829 831 832 833 835 836 837 839 840 841 843 844 844 845 847 849 849 851 852 854 856
795 797 800 800 801 802 803 803 804 805 806 808 809 811 813 815 816 819 821 823 825 827 829 831 832 834 835 837 838 840 841 842 843 844 844 845 847 849 850 852 854 855 857
795 797 799 800 801 802 802 803 804 804 805 807 808 809 811 813 815 817 819 821 824 826 828 830 832 834 835 837 838 840 841 842 843 844 845 846 848 849 850 852 854 856 857
794 796 797 798 800 802 803 802 803 804 804 805 806 808 809 810 813 815 817 819 822 824 826 829 831 833 835 836 838 839 840 842 843 844 845 846 847 849 850 851 853 855 857
792 794 794 796 798 799 800 801 802 803 803 804 805 806 807 809 811 813 814 817 819 822 824 827 829 831 833 835 837 838 839 840 843 843 845 847 848 849 850 851 852 854 856
789 790 791 793 795 796 798 799 800 801 802 803 803 805 805 807 809 810 812 815 817 820 822 824 827 829 831 833 834 837 838 839 841 841 843 845 847 849 849 850 851 853 855
786 787 789 790 791 793 795 797 798 799 800 801 802 803 803 804 805 807 810 812 814 817 819 821 823 826 828 831 833 834 836 837 838 840 841 843 845 847 849 850 850 852 853
782 783 785 787 788 790 792 793 795 797 798 799 800 801 802 802 804 805 808 810 812 814 816 818 820 823 825 828 830 832 833 835 837 837 839 841 843 845 848 850 850 851 852
779 780 781 783 785 787 788 790 792 794 795 797 798 799 799 800 802 804 805 807 809 811 813 815 816 819 821 824 827 829 831 832 835 836 837 839 841 844 845 848 849 851 852
774 777 779 780 781 783 785 787 789 791 792 794 795 797 798 798 800 801 802 804 806 808 810 812 814 817 819 821 823 826 828 830 831 834 834 836 839 842 844 845 847 849 851
771 774 776 778 779 781 782 784 786 788 789 791 793 795 796 797 797 798 800 801 803 805 806 809 811 813 815 817 820 822 824 825 829 831 832 834 837 840 842 843 845 847 849
766 770 772 774 777 779 780 781 783 785 787 788 790 792 794 795 795 796 797 798 800 802 804 805 807 809 811 813 816 819 822 823 825 829 829 831 834 838 841 842 843 845 846
763 766 769 771 774 776 777 779 780 782 784 786 787 788 790 792 794 794 794 795 797 799 800 802 803 805 807 808 811 814 818 820 823 824 825 827 830 835 838 840 842 843 845
758 763 766 768 770 773 774 775 777 778 781 783 784 784 786 789 791 792 792 792 794 795 797 799 801 802 804 808 808 810 813 815 817 820 822 822 825 829 833 836 839 841 843
756 760 764 766 768 770 771 772 774 775 777 779 780 781 782 784 787 789 789 790 791 792 794 796 798 800 802 804 806 806 809 814 813 816 819 821 823 825 828 833 835 836 840
755 759 762 765 767 768 768 769 770 772 774 776 777 777 778 780 783 786 787 787 788 789 790 792 794 796 797 799 801 802 808 805 809 812 815 815 819 824 821 827 831 832 837
758 761 764 765 766 766 765 766 768 770 771 772 773 774 774 776 779 782 784 784 784 786 786 788 790 791 793 794 797 798 799 797 805 810 810 812 815 818 820 825 828 828 830
764 766 767 768 766 765 763 764 767 769 770 770 771 771 771 772 775 778 780 781 780 781 783 784 786 786 787 789 790 793 796 798 796 798 805 808 812 813 815 819 820 824 827
771 771 771 769 767 765 764 763 764 766 768 768 768 768 769 770 771 774 776 777 777 777 778 779 780 781 782 783 784 786 787 791 795 795 796 803 805 804 809 812 816 817 824
Wind_Speed
12 12 11 10 10 10 10 10 9 9 9 9 9 8 9 10 11 11 10 10 11 10 11 12 11 11 12 13 14 15 16 14 15 15 15 15 15 14 15 14 18 18 19
18 12 11 11 9 9 8 8 8 8 9 8 8 8 10 9 10 11 10 10 10 11 11 12 11 11 12 13 13 13 14 14 13 13 14 14 14 13 11 13 17 17 19
15 11 11 10 9 8 7 6 6 6 6 8 8 7 9 9 10 10 10 10 9 9 9 11 11 13 12 12 12 11 13 12 12 14 13 11 13 12 16 13 16 15 16
14 18 11 10 8 7 6 5 6 5 6 7 7 8 8 9 9 10 9 10 9 9 10 10 12 13 12 10 10 9 11 12 13 13 13 9 9 11 12 13 14 14 15
17 12 11 9 7 6 5 5 5 5 6 6 7 8 8 9 10 9 9 10 9 9 9 10 12 11 8 8 8 10 11 12 8 4 3 12 7 10 10 14 14 15 14
13 9 8 6 5 6 5 4 5 5 5 6 7 9 10 9 10 10 9 10 10 9 9 9 11 8 7 7 8 10 11 12 8 8 9 11 10 16 12 20 15 13 14
14 8 7 6 5 4 5 4 4 5 6 6 7 9 10 10 10 10 9 11 12 11 10 9 9 8 7 8 9 9 10 11 7 4 7 7 11 12 14 16 16 16 15
8 7 4 3 3 3 2 4 4 4 5 7 8 8 9 10 11 11 11 11 13 13 12 10 9 8 9 8 8 8 9 10 4 3 7 11 11 11 12 10 11 10 12
6 7 3 1 1 2 1 1 3 5 7 7 8 9 10 9 10 12 12 13 14 13 12 12 10 9 10 9 8 7 8 10 4 5 11 14 13 11 9 9 8 9 9
6 5 3 3 2 2 3 4 5 5 7 9 9 10 10 11 11 11 12 14 14 14 13 13 12 11 12 10 9 7 7 9 4 7 11 12 12 9 8 6 6 8 9
7 5 6 6 5 4 4 5 7 5 6 8 11 12 11 12 13 14 13 14 15 16 15 14 13 13 14 13 12 9 7 11 9 7 10 11 10 9 7 5 6 8 8
12 10 7 8 9 9 7 6 5 6 7 6 8 10 11 11 12 15 15 16 16 17 17 16 15 15 16 16 15 13 11 12 13 9 9 10 10 9 7 6 6 7 9
14 10 8 9 10 10 8 8 7 7 8 6 9 9 14 12 14 15 18 17 18 18 19 19 17 17 19 17 14 16 15 15 13 16 15 14 11 10 9 7 5 8 11
13 13 12 12 12 11 9 8 7 9 8 8 7 11 11 12 15 16 14 17 20 21 23 23 23 21 22 21 18 16 17 18 12 17 15 15 11 10 11 10 9 11 13
16 16 14 14 14 11 11 10 10 10 11 12 11 8 10 13 6 12 12 15 17 18 21 24 25 24 25 25 24 18 16 18 16 14 16 14 13 12 13 13 14 15 16
16 16 16 16 14 13 13 10 10 10 10 11 11 11 13 9 9 12 12 14 16 17 20 23 25 28 26 26 29 25 23 21 19 15 13 13 13 15 14 14 16 17 18
21 19 18 18 17 16 14 12 10 11 12 13 13 12 12 12 11 9 11 15 14 15 16 20 22 25 27 26 28 28 20 23 20 17 14 14 15 16 14 16 17 18 19
20 20 19 18 17 15 13 12 12 10 12 12 12 13 12 11 13 14 12 14 15 17 18 19 21 26 26 27 27 29 23 17 17 20 16 14 12 16 15 15 16 18 20
22 20 20 19 17 14 13 11 11 11 12 11 12 13 12 12 11 12 12 11 11 14 16 16 19 24 30 28 31 30 25 24 20 20 17 17 13 14 17 18 16 14 15
20 20 20 20 15 14 12 11 11 11 13 13 13 15 16 13 12 11 10 11 14 11 12 17 15 22 23 29 29 28 28 24 27 17 20 19 20 16 16 20 19 18 14
21 19 21 19 17 16 15 13 12 14 13 14 15 16 15 15 14 13 12 10 10 15 13 12 17 14 24 21 21 19 26 27 25 27 17 24 25 21 18 18 23 20 19
18 18 17 16 16 15 14 13 10 12 12 17 19 17 15 16 17 17 17 15 12 11 16 18 14 17 16 21 7 7 3 5 21 25 22 20 23 25 21 23 25 25 22
11 15 15 14 14 14 15 13 14 12 8 10 12 13 14 16 15 16 16 16 16 16 16 17 19 20 16 19 23 9 1 3 5 15 24 23 25 26 25 29 26 28 25
6 8 10 10 11 12 14 14 12 13 13 14 13 15 14 11 14 16 17 18 19 18 18 21 20 22 21 16 19 24 10 7 3 2 16 24 25 27 28 27 27 28 27
6 1 4 7 8 9 13 11 11 12 13 12 11 12 12 13 15 15 17 18 18 17 20 18 22 22 25 24 23 17 20 12 8 4 4 7 25 29 33 33 30 28 29
8 6 6 6 6 6 9 11 11 12 12 11 11 12 10 13 13 16 16 19 18 19 20 24 21 24 27 28 28 28 23 15 7 4 2 12 18 24 31 31 35 35 33
Wind_Direction
128 130 129 119 125 133 122 121 136 149 150 146 145 143 134 131 127 122 121 125 129 118 117 119 114 106 103 102 104 104 103 101 100 101 100 101 104 101 100 101 113 100 97
127 134 133 126 118 127 138 129 134 143 157 156 164 160 146 140 136 127 124 124 125 125 124 129 124 120 114 113 111 111 117 117 118 120 117 113 111 107 119 114 118 106 98
120 128 134 134 134 128 129 144 142 144 158 169 173 162 161 164 150 140 135 129 132 141 139 137 133 126 123 125 126 128 129 123 120 116 105 107 119 106 114 121 106 110 109
123 126 129 133 135 141 144 148 150 157 157 169 183 178 179 175 163 153 150 142 142 148 147 145 142 142 140 137 136 139 139 129 126 132 132 101 125 130 125 125 116 114 112
107 119 114 125 136 143 148 163 168 175 179 183 186 194 191 184 181 174 164 163 159 159 161 154 151 149 150 151 150 151 150 137 130 110 347 143 133 149 139 136 134 125 123
132 115 116 126 136 139 150 169 181 190 193 197 201 202 198 205 202 195 179 177 177 181 172 168 167 174 177 176 168 160 159 154 111 73 125 138 133 125 113 146 131 128 130
100 101 109 98 97 159 169 165 187 202 210 211 209 215 217 214 207 205 196 193 191 194 189 187 187 187 185 183 178 174 167 165 149 134 177 149 136 115 113 119 119 118 114
136 101 89 79 70 90 159 198 205 210 219 223 225 220 221 219 219 214 206 205 201 202 201 199 191 189 183 181 181 182 176 169 176 160 169 165 151 131 127 125 129 124 128
104 139 148 179 40 49 7 290 241 235 233 231 230 231 229 229 225 223 218 212 210 209 209 206 202 197 187 183 186 186 188 181 161 195 165 156 147 142 139 139 139 138 137
175 171 201 209 221 303 282 306 290 270 251 239 231 230 231 230 226 224 221 217 219 214 213 214 205 206 194 186 182 184 187 187 167 168 153 158 148 150 150 145 154 160 164
199 220 219 215 230 248 259 280 286 285 282 255 238 233 228 228 228 227 222 218 219 220 220 215 208 210 202 197 194 192 191 177 193 203 164 167 162 161 166 147 164 176 174
215 222 231 235 232 227 229 249 274 266 290 278 261 238 234 230 221 233 231 223 219 224 222 219 215 215 209 207 208 206 198 191 197 190 187 194 186 177 185 174 183 187 181
213 215 203 215 236 238 233 238 234 248 258 258 246 239 234 235 232 232 224 226 221 220 220 219 218 216 213 207 217 221 212 206 225 203 211 222 199 188 194 193 195 187 187
222 227 229 234 226 228 223 231 252 234 242 242 249 248 240 244 228 231 221 223 222 224 220 219 217 216 217 208 209 223 222 217 236 216 223 219 213 208 200 202 204 189 180
235 226 232 218 220 213 225 231 235 235 237 243 229 235 238 252 225 232 230 232 229 230 225 223 215 214 218 217 214 214 214 215 234 231 219 211 213 206 205 215 211 193 183
227 220 220 215 215 207 221 225 236 241 243 235 238 232 229 221 249 250 239 234 237 233 228 225 221 214 213 222 216 220 218 222 225 220 208 204 211 210 213 212 202 199 196
222 225 219 211 214 210 218 222 232 244 239 236 235 231 233 223 221 228 238 245 242 241 236 231 230 219 214 220 221 221 232 224 217 216 224 212 208 213 220 217 207 204 202
218 215 208 211 211 211 213 221 228 230 239 239 230 230 233 224 225 222 225 229 243 239 243 242 234 222 214 216 217 221 225 228 222 214 207 187 199 222 218 204 216 214 211
215 209 205 205 212 209 208 223 231 225 234 229 226 226 229 225 230 232 223 236 240 250 248 244 239 232 220 213 218 221 228 222 225 233 216 205 210 229 219 206 209 212 210
213 213 210 202 206 204 209 216 230 229 236 226 225 223 222 226 226 230 224 229 229 228 245 241 245 233 221 223 220 225 222 217 215 215 210 202 205 208 221 214 208 207 201
205 208 202 190 199 203 202 202 211 214 220 227 229 221 222 224 226 229 230 238 245 235 237 249 247 242 233 237 213 211 221 222 215 211 212 206 196 195 211 212 210 208 201
196 203 199 203 196 202 202 204 209 225 237 233 225 223 222 232 232 232 229 228 233 243 237 242 242 237 246 223 208 168 171 213 218 216 216 208 204 199 206 214 208 205 200
194 204 204 202 205 209 208 199 209 203 190 215 228 232 235 223 227 237 236 233 236 234 237 240 237 238 229 233 215 180 154 212 144 201 212 203 200 204 200 211 208 203 202
190 193 198 205 213 207 204 205 206 211 217 235 237 233 239 232 231 237 242 246 236 235 240 239 237 238 236 222 225 221 245 158 180 174 214 218 211 204 202 201 203 203 198
56 49 249 233 219 208 203 207 204 225 240 242 247 245 218 218 232 244 250 250 258 254 241 243 243 237 235 226 219 221 221 220 192 147 184 190 205 207 212 206 200 203 204
354 319 284 266 251 228 215 228 235 236 249 258 262 262 237 227 223 235 239 249 254 255 256 246 241 244 241 239 226 225 217 210 207 191 124 196 202 197 197 205 206 203 206